Flag for Canada Weather past 2 weeks in Rouyn-Noranda, Quebec, Canada

Now
-13 °F

Clear.


Feels Like: -29 °F
Forecast: -16 / 9 °F
Wind: 7 mph from Southwest

Location: Rouyn Airport

Current Time: Feb 27, 2015 at 12:09:21 AM

Latest Report: Feb 26, 2015 at 11:00 PM


Visibility: 15 mi

Pressure: 30.21 "Hg

Humidity: 76%

Dew point: -18 °F

Location of Rouyn-NorandaLocation

Historic Weather in Rouyn-Noranda — Graph

°F

Rouyn-Noranda temperature yesterday

Maximum temperature yesterday: 1 °F (at 3:00 PM)
Minimum temperature yesterday: -27 °F (at 5:00 AM)
Average temperature yesterday: -14 °F

Past Weeks' High & Low Weather Summary

 TemperatureHumidityPressure
High12 °F (Feb 21, 3:00 PM)92% (Feb 18, 4:00 AM)30.49 "Hg (Feb 18, 4:00 AM)
Low-31 °F (Feb 13, 5:00 AM)45% (Feb 20, 3:00 PM)29.39 "Hg (Feb 24, 9:00 PM)
Average-9 °F71%30.05 "Hg
* Reported Feb 11 10:00 PM — Feb 26 10:00 PM, Rouyn-Noranda, Weather by CustomWeather, © 2015

Note: Actual official high and low records may vary slightly from our data, if they occured in-between our weather recording intervals... More about our weather records

Advertising

Rouyn-Noranda weather history for previous 24 hours

 ConditionsComfort  
Time TempWeatherWind HumidityBarometerVisibility
10:00 PM
Thu, Feb 26
-11 °FClear.6 mph70%30.21 "Hg15 mi
9:00 PM-11 °FClear.6 mph76%30.21 "Hg15 mi
8:00 PM-11 °FClear.3 mph70%30.22 "Hg15 mi
7:00 PM-6 °FClear.2 mph64%30.21 "Hg15 mi
6:00 PM-4 °FClear.7 mph59%30.20 "Hg15 mi
5:00 PM0 °FPassing clouds.7 mph54%30.19 "Hg15 mi
4:00 PM1 °FPassing clouds.8 mph50%30.19 "Hg15 mi
3:00 PM1 °FPassing clouds.8 mph46%30.20 "Hg15 mi
2:00 PM0 °FPassing clouds.9 mph50%30.22 "Hg15 mi
1:00 PM-2 °FPassing clouds.9 mph54%30.23 "Hg15 mi
12:00 PM-4 °FPassing clouds.9 mph54%30.25 "Hg15 mi
11:00 AM-8 °FPassing clouds.7 mph64%30.25 "Hg15 mi
10:00 AM-11 °FPassing clouds.2 mph70%30.26 "Hg15 mi
9:00 AM-18 °FSunny.5 mph75%30.26 "Hg15 mi
8:00 AM-26 °FSunny.2 mph75%30.25 "Hg15 mi
7:00 AM-27 °FClear.No wind74%30.23 "Hg15 mi
6:00 AM-27 °FClear.No wind67%30.22 "Hg15 mi
5:00 AM-27 °FSnow flurries. Clear.No wind67%30.20 "Hg15 mi
4:00 AM-26 °FSnow flurries. Clear.No wind67%30.19 "Hg15 mi
3:00 AM-26 °FSnow flurries. Clear.No wind75%30.19 "Hg15 mi
2:49 AM-26 °FSnow flurries. Clear.No wind75%30.18 "Hg15 mi
2:00 AM-24 °FClear.No wind68%30.17 "Hg15 mi
1:00 AM-24 °FClear.2 mph75%30.15 "Hg15 mi
12:00 AM-18 °FClear.2 mph75%30.14 "Hg15 mi
Weather by CustomWeather, © 2015

See weather overviewHow to use our weather pages